Year,Month,Day,Hour,Minute,Value (Times are PST for windspeed in km/hr)
2017,04,06,00,00,0.00
2017,04,06,00,01,0.00
2017,04,06,00,02,0.00
2017,04,06,00,03,0.00
2017,04,06,00,04,0.00
2017,04,06,00,05,0.00
2017,04,06,00,06,0.00
2017,04,06,00,07,0.00
2017,04,06,00,08,0.10
2017,04,06,00,09,0.00
2017,04,06,00,10,0.00
2017,04,06,00,11,0.00
2017,04,06,00,12,2.00
2017,04,06,00,13,2.60
2017,04,06,00,14,1.80
2017,04,06,00,15,1.90
2017,04,06,00,16,2.30
2017,04,06,00,17,3.10
2017,04,06,00,18,3.90
2017,04,06,00,19,3.50
2017,04,06,00,20,2.80
2017,04,06,00,21,3.10
2017,04,06,00,22,1.70
2017,04,06,00,23,3.10
2017,04,06,00,24,1.30
2017,04,06,00,25,2.30
2017,04,06,00,26,3.60
2017,04,06,00,27,3.50
2017,04,06,00,28,2.80
2017,04,06,00,29,3.80
2017,04,06,00,30,4.00
2017,04,06,00,31,3.90
2017,04,06,00,32,2.10
2017,04,06,00,33,2.70
2017,04,06,00,34,3.90
2017,04,06,00,35,3.30
2017,04,06,00,36,3.40
2017,04,06,00,37,4.40
2017,04,06,00,38,3.60
2017,04,06,00,39,4.50
2017,04,06,00,40,3.50
2017,04,06,00,41,2.70
2017,04,06,00,42,3.60
2017,04,06,00,43,3.70
2017,04,06,00,44,2.80
2017,04,06,00,45,1.80
2017,04,06,00,46,2.00
2017,04,06,00,47,2.00
2017,04,06,00,48,1.80
2017,04,06,00,49,2.10
2017,04,06,00,50,3.40
2017,04,06,00,51,3.10
2017,04,06,00,52,2.30
2017,04,06,00,53,2.30
2017,04,06,00,54,2.30
2017,04,06,00,55,3.60
2017,04,06,00,56,4.70
2017,04,06,00,57,3.80
2017,04,06,00,58,5.20
2017,04,06,00,59,4.60
2017,04,06,01,00,5.00
2017,04,06,01,01,4.20
2017,04,06,01,02,4.50
2017,04,06,01,03,2.30
2017,04,06,01,04,2.40
2017,04,06,01,05,2.70
2017,04,06,01,06,2.50
2017,04,06,01,07,3.40
2017,04,06,01,08,4.00
2017,04,06,01,09,3.90
2017,04,06,01,10,3.60
2017,04,06,01,11,2.00
2017,04,06,01,12,1.70
2017,04,06,01,13,2.10
2017,04,06,01,14,1.70
2017,04,06,01,15,3.60
2017,04,06,01,16,2.20
2017,04,06,01,17,2.00
2017,04,06,01,18,2.80
2017,04,06,01,19,0.90
2017,04,06,01,20,0.60
2017,04,06,01,21,0.10
2017,04,06,01,22,0.00
2017,04,06,01,23,0.10
2017,04,06,01,24,0.00
2017,04,06,01,25,1.50
2017,04,06,01,26,1.10
2017,04,06,01,27,1.20
2017,04,06,01,28,2.10
2017,04,06,01,29,1.00
2017,04,06,01,30,1.70
2017,04,06,01,31,0.50
2017,04,06,01,32,0.90
2017,04,06,01,33,0.10
2017,04,06,01,34,0.10
2017,04,06,01,35,1.70
2017,04,06,01,36,3.30
2017,04,06,01,37,3.30
2017,04,06,01,38,3.40
2017,04,06,01,39,3.60
2017,04,06,01,40,3.60
2017,04,06,01,41,4.70
2017,04,06,01,42,3.40
2017,04,06,01,43,3.90
2017,04,06,01,44,2.30
2017,04,06,01,45,2.40
2017,04,06,01,46,1.00
2017,04,06,01,47,1.20
2017,04,06,01,48,0.70
2017,04,06,01,49,1.20
2017,04,06,01,50,3.20
2017,04,06,01,51,1.20
2017,04,06,01,52,0.40
2017,04,06,01,53,0.10
2017,04,06,01,54,0.00
2017,04,06,01,55,1.40
2017,04,06,01,56,0.20
2017,04,06,01,57,0.10
2017,04,06,01,58,0.30
2017,04,06,01,59,4.20
2017,04,06,02,00,1.10
2017,04,06,02,01,1.20
2017,04,06,02,02,3.70
2017,04,06,02,03,1.10
2017,04,06,02,04,0.00
2017,04,06,02,05,2.20
2017,04,06,02,06,2.90
2017,04,06,02,07,0.60
2017,04,06,02,08,0.00
2017,04,06,02,09,1.00
2017,04,06,02,10,1.00
2017,04,06,02,11,0.00
2017,04,06,02,12,0.10
2017,04,06,02,13,2.60
2017,04,06,02,14,2.70
2017,04,06,02,15,4.20
2017,04,06,02,16,4.10
2017,04,06,02,17,4.60
2017,04,06,02,18,4.40
2017,04,06,02,19,3.20
2017,04,06,02,20,4.80
2017,04,06,02,21,4.60
2017,04,06,02,22,4.40
2017,04,06,02,23,4.20
2017,04,06,02,24,4.10
2017,04,06,02,25,4.40
2017,04,06,02,26,2.60
2017,04,06,02,27,4.00
2017,04,06,02,28,6.30
2017,04,06,02,29,6.70
2017,04,06,02,30,7.30
2017,04,06,02,31,6.10
2017,04,06,02,32,6.70
2017,04,06,02,33,5.90
2017,04,06,02,34,5.30
2017,04,06,02,35,4.40
2017,04,06,02,36,2.90
2017,04,06,02,37,1.90
2017,04,06,02,38,3.60
2017,04,06,02,39,4.70
2017,04,06,02,40,9.30
2017,04,06,02,41,7.00
2017,04,06,02,42,7.40
2017,04,06,02,43,4.40
2017,04,06,02,44,2.10
2017,04,06,02,45,1.80
2017,04,06,02,46,3.10
2017,04,06,02,47,6.10
2017,04,06,02,48,3.70
2017,04,06,02,49,3.80
2017,04,06,02,50,3.80
2017,04,06,02,51,4.20
2017,04,06,02,52,4.00
2017,04,06,02,53,2.40
2017,04,06,02,54,4.30
2017,04,06,02,55,3.40
2017,04,06,02,56,2.10
2017,04,06,02,57,3.10
2017,04,06,02,58,3.80
2017,04,06,02,59,4.50
2017,04,06,03,00,3.50
2017,04,06,03,01,4.10
2017,04,06,03,02,3.30
2017,04,06,03,03,2.80
2017,04,06,03,04,3.40
2017,04,06,03,05,5.00
2017,04,06,03,06,3.30
2017,04,06,03,07,3.00
2017,04,06,03,08,3.50
2017,04,06,03,09,4.10
2017,04,06,03,10,2.50
2017,04,06,03,11,2.60
2017,04,06,03,12,2.00
2017,04,06,03,13,2.90
2017,04,06,03,14,2.50
2017,04,06,03,15,2.90
2017,04,06,03,16,2.60
2017,04,06,03,17,1.20
2017,04,06,03,18,0.20
2017,04,06,03,19,2.70
2017,04,06,03,20,1.20
2017,04,06,03,21,2.80
2017,04,06,03,22,2.10
2017,04,06,03,23,3.10
2017,04,06,03,24,2.40
2017,04,06,03,25,1.80
2017,04,06,03,26,1.10
2017,04,06,03,27,1.90
2017,04,06,03,28,1.80
2017,04,06,03,29,0.20
2017,04,06,03,30,0.70
2017,04,06,03,31,0.10
2017,04,06,03,32,0.00
2017,04,06,03,33,0.00
2017,04,06,03,34,0.00
2017,04,06,03,35,1.20
2017,04,06,03,36,2.80
2017,04,06,03,37,2.10
2017,04,06,03,38,2.60
2017,04,06,03,39,2.10
2017,04,06,03,40,2.40
2017,04,06,03,41,1.10
2017,04,06,03,42,0.50
2017,04,06,03,43,0.00
2017,04,06,03,44,0.30
2017,04,06,03,45,1.40
2017,04,06,03,46,3.10
2017,04,06,03,47,3.10
2017,04,06,03,48,3.10
2017,04,06,03,49,3.50
2017,04,06,03,50,3.20
2017,04,06,03,51,3.20
2017,04,06,03,52,2.60
2017,04,06,03,53,3.00
2017,04,06,03,54,3.60
2017,04,06,03,55,1.90
2017,04,06,03,56,3.20
2017,04,06,03,57,3.70
2017,04,06,03,58,2.80
2017,04,06,03,59,4.30
2017,04,06,04,00,5.60
2017,04,06,04,01,4.30
2017,04,06,04,02,3.90
2017,04,06,04,03,4.60
2017,04,06,04,04,2.60
2017,04,06,04,05,2.60
2017,04,06,04,06,2.20
2017,04,06,04,07,2.10
2017,04,06,04,08,2.50
2017,04,06,04,09,2.30
2017,04,06,04,10,1.80
2017,04,06,04,11,1.70
2017,04,06,04,12,2.50
2017,04,06,04,13,2.80
2017,04,06,04,14,3.80
2017,04,06,04,15,3.40
2017,04,06,04,16,3.60
2017,04,06,04,17,3.00
2017,04,06,04,18,3.70
2017,04,06,04,19,3.70
2017,04,06,04,20,2.50
2017,04,06,04,21,4.00
2017,04,06,04,22,3.40
2017,04,06,04,23,3.60
2017,04,06,04,24,3.40
2017,04,06,04,25,2.50
2017,04,06,04,26,3.60
2017,04,06,04,27,6.10
2017,04,06,04,28,5.30
2017,04,06,04,29,4.60
2017,04,06,04,30,5.00
2017,04,06,04,31,4.50
2017,04,06,04,32,4.40
2017,04,06,04,33,3.10
2017,04,06,04,34,4.50
2017,04,06,04,35,6.20
2017,04,06,04,36,6.00
2017,04,06,04,37,5.60
2017,04,06,04,38,5.70
2017,04,06,04,39,5.60
2017,04,06,04,40,6.10
2017,04,06,04,41,6.30
2017,04,06,04,42,6.50
2017,04,06,04,43,5.30
2017,04,06,04,44,6.00
2017,04,06,04,45,6.10
2017,04,06,04,46,6.40
2017,04,06,04,47,7.50
2017,04,06,04,48,7.30
2017,04,06,04,49,6.70
2017,04,06,04,50,8.30
2017,04,06,04,51,7.50
2017,04,06,04,52,7.00
2017,04,06,04,53,9.40
2017,04,06,04,54,10.10
2017,04,06,04,55,9.40
2017,04,06,04,56,6.70
2017,04,06,04,57,8.10
2017,04,06,04,58,6.70
2017,04,06,04,59,5.70
2017,04,06,05,00,7.50
2017,04,06,05,01,6.60
2017,04,06,05,02,6.40
2017,04,06,05,03,5.10
2017,04,06,05,04,5.50
2017,04,06,05,05,5.30
2017,04,06,05,06,6.10
2017,04,06,05,07,5.30
2017,04,06,05,08,7.80
2017,04,06,05,09,5.90
2017,04,06,05,10,5.60
2017,04,06,05,11,3.90
2017,04,06,05,12,6.90
2017,04,06,05,13,5.70
2017,04,06,05,14,5.40
2017,04,06,05,15,6.60
2017,04,06,05,16,4.90
2017,04,06,05,17,6.10
2017,04,06,05,18,7.90
2017,04,06,05,19,2.90
2017,04,06,05,20,3.40
2017,04,06,05,21,4.80
2017,04,06,05,22,4.20
2017,04,06,05,23,5.00
2017,04,06,05,24,6.60
2017,04,06,05,25,4.90
2017,04,06,05,26,4.30
2017,04,06,05,27,4.80
2017,04,06,05,28,6.90
2017,04,06,05,29,5.20
2017,04,06,05,30,5.10
2017,04,06,05,31,5.60
2017,04,06,05,32,7.40
2017,04,06,05,33,6.40
2017,04,06,05,34,7.00
2017,04,06,05,35,4.50
2017,04,06,05,36,3.80
2017,04,06,05,37,4.90
2017,04,06,05,38,4.50
2017,04,06,05,39,6.50
2017,04,06,05,40,5.30
2017,04,06,05,41,6.10
2017,04,06,05,42,4.40
2017,04,06,05,43,4.60
2017,04,06,05,44,3.70
2017,04,06,05,45,6.00
2017,04,06,05,46,6.30
2017,04,06,05,47,6.50
2017,04,06,05,48,3.40
2017,04,06,05,49,3.10
2017,04,06,05,50,1.00
2017,04,06,05,51,2.20
2017,04,06,05,52,2.40
2017,04,06,05,53,1.70
2017,04,06,05,54,1.40
2017,04,06,05,55,3.50
2017,04,06,05,56,2.90
2017,04,06,05,57,4.30
2017,04,06,05,58,3.80
2017,04,06,05,59,5.00
2017,04,06,06,00,4.10
2017,04,06,06,01,3.80
2017,04,06,06,02,7.00
2017,04,06,06,03,5.70
2017,04,06,06,04,5.80
2017,04,06,06,05,4.30
2017,04,06,06,06,7.30
2017,04,06,06,07,4.50
2017,04,06,06,08,5.90
2017,04,06,06,09,4.70
2017,04,06,06,10,5.70
2017,04,06,06,11,3.60
2017,04,06,06,12,5.30
2017,04,06,06,13,6.00
2017,04,06,06,14,4.60
2017,04,06,06,15,4.30
2017,04,06,06,16,3.20
2017,04,06,06,17,1.10
2017,04,06,06,18,2.00
2017,04,06,06,19,2.00
2017,04,06,06,20,3.70
2017,04,06,06,21,5.00
2017,04,06,06,22,6.40
2017,04,06,06,23,5.30
2017,04,06,06,24,8.10
2017,04,06,06,25,5.90
2017,04,06,06,26,6.50
2017,04,06,06,27,8.30
2017,04,06,06,28,10.50
2017,04,06,06,29,5.30
2017,04,06,06,30,5.30
2017,04,06,06,31,5.00
2017,04,06,06,32,3.50
2017,04,06,06,33,4.90
2017,04,06,06,34,6.30
2017,04,06,06,35,6.60
2017,04,06,06,36,6.00
2017,04,06,06,37,6.00
2017,04,06,06,38,6.10
2017,04,06,06,39,5.70
2017,04,06,06,40,6.90
2017,04,06,06,41,7.50
2017,04,06,06,42,7.40
2017,04,06,06,43,8.30
2017,04,06,06,44,6.70
2017,04,06,06,45,5.70
2017,04,06,06,46,4.90
2017,04,06,06,47,4.70
2017,04,06,06,48,5.90
2017,04,06,06,49,6.20
2017,04,06,06,50,5.00
2017,04,06,06,51,6.90
2017,04,06,06,52,5.80
2017,04,06,06,53,6.90
2017,04,06,06,54,8.00
2017,04,06,06,55,6.20
2017,04,06,06,56,8.40
2017,04,06,06,57,7.80
2017,04,06,06,58,5.00
2017,04,06,06,59,3.70
2017,04,06,07,00,3.10
2017,04,06,07,01,3.70
2017,04,06,07,02,1.40
2017,04,06,07,03,2.30
2017,04,06,07,04,2.70
2017,04,06,07,05,4.60
2017,04,06,07,06,4.20
2017,04,06,07,07,3.70
2017,04,06,07,08,4.80
2017,04,06,07,09,4.70
2017,04,06,07,10,5.40
2017,04,06,07,11,5.00
2017,04,06,07,12,1.70
2017,04,06,07,13,3.10
2017,04,06,07,14,3.90
2017,04,06,07,15,3.70
2017,04,06,07,16,2.90
2017,04,06,07,17,2.80
2017,04,06,07,18,3.70
2017,04,06,07,19,5.70
2017,04,06,07,20,7.90
2017,04,06,07,21,6.30
2017,04,06,07,22,9.40
2017,04,06,07,23,7.00
2017,04,06,07,24,5.60
2017,04,06,07,25,5.00
2017,04,06,07,26,5.40
2017,04,06,07,27,4.90
2017,04,06,07,28,3.80
2017,04,06,07,29,4.70
2017,04,06,07,30,7.20
2017,04,06,07,31,7.50
2017,04,06,07,32,6.50
2017,04,06,07,33,6.70
2017,04,06,07,34,4.70
2017,04,06,07,35,6.40
2017,04,06,07,36,6.30
2017,04,06,07,37,7.60
2017,04,06,07,38,6.70
2017,04,06,07,39,4.50
2017,04,06,07,40,4.80
2017,04,06,07,41,5.20
2017,04,06,07,42,4.50
2017,04,06,07,43,4.90
2017,04,06,07,44,3.80
2017,04,06,07,45,6.50
2017,04,06,07,46,5.90
2017,04,06,07,47,7.50
2017,04,06,07,48,3.40
2017,04,06,07,49,3.90
2017,04,06,07,50,1.10
2017,04,06,07,51,1.00
2017,04,06,07,52,3.80
2017,04,06,07,53,4.10
2017,04,06,07,54,2.60
2017,04,06,07,55,6.40
2017,04,06,07,56,8.20
2017,04,06,07,57,8.30
2017,04,06,07,58,7.20
2017,04,06,07,59,4.70
2017,04,06,08,00,7.10
2017,04,06,08,01,4.20
2017,04,06,08,02,7.40
2017,04,06,08,03,8.30
2017,04,06,08,04,6.10
2017,04,06,08,05,3.90
2017,04,06,08,06,6.70
2017,04,06,08,07,6.20
2017,04,06,08,08,8.90
2017,04,06,08,09,5.30
2017,04,06,08,10,4.40
2017,04,06,08,11,3.60
2017,04,06,08,12,2.70
2017,04,06,08,13,3.90
2017,04,06,08,14,2.40
2017,04,06,08,15,2.20
2017,04,06,08,16,2.10
2017,04,06,08,17,3.20
2017,04,06,08,18,3.30
2017,04,06,08,19,5.00
2017,04,06,08,20,4.50
2017,04,06,08,21,4.00
2017,04,06,08,22,7.70
2017,04,06,08,23,3.70
2017,04,06,08,24,5.80
2017,04,06,08,25,8.10
2017,04,06,08,26,9.00
2017,04,06,08,27,7.60
2017,04,06,08,28,6.20
2017,04,06,08,29,4.80
2017,04,06,08,30,7.00
2017,04,06,08,31,6.20
2017,04,06,08,32,7.00
2017,04,06,08,33,8.10
2017,04,06,08,34,6.90
2017,04,06,08,35,5.90
2017,04,06,08,36,3.70
2017,04,06,08,37,5.80
2017,04,06,08,38,3.10
2017,04,06,08,39,7.90
2017,04,06,08,40,5.60
2017,04,06,08,41,6.10
2017,04,06,08,42,4.50
2017,04,06,08,43,1.80
2017,04,06,08,44,3.40
2017,04,06,08,45,4.70
2017,04,06,08,46,4.20
2017,04,06,08,47,4.90
2017,04,06,08,48,4.20
2017,04,06,08,49,5.10
2017,04,06,08,50,5.20
2017,04,06,08,51,4.20
2017,04,06,08,52,3.40
2017,04,06,08,53,5.10
2017,04,06,08,54,6.40
2017,04,06,08,55,6.90
2017,04,06,08,56,5.90
2017,04,06,08,57,4.60
2017,04,06,08,58,2.30
2017,04,06,08,59,4.30
2017,04,06,09,00,4.80
2017,04,06,09,01,5.30
2017,04,06,09,02,6.10
2017,04,06,09,03,6.10
2017,04,06,09,04,7.20
2017,04,06,09,05,10.60
2017,04,06,09,06,7.50
2017,04,06,09,07,7.80
2017,04,06,09,08,8.30
2017,04,06,09,09,6.30
2017,04,06,09,10,6.20
2017,04,06,09,11,6.00
2017,04,06,09,12,5.30
2017,04,06,09,13,4.10
2017,04,06,09,14,4.20
2017,04,06,09,15,5.90
2017,04,06,09,16,4.50
2017,04,06,09,17,5.70
2017,04,06,09,18,4.50
2017,04,06,09,19,5.60
2017,04,06,09,20,5.70
2017,04,06,09,21,4.20
2017,04,06,09,22,6.10
2017,04,06,09,23,3.70
2017,04,06,09,24,5.10
2017,04,06,09,25,5.80
2017,04,06,09,26,5.10
2017,04,06,09,27,6.10
2017,04,06,09,28,7.10
2017,04,06,09,29,6.50
2017,04,06,09,30,5.60
2017,04,06,09,31,5.70
2017,04,06,09,32,3.60
2017,04,06,09,33,4.60
2017,04,06,09,34,4.50
2017,04,06,09,35,4.10
2017,04,06,09,36,5.10
2017,04,06,09,37,5.90
2017,04,06,09,38,5.60
2017,04,06,09,39,5.30
2017,04,06,09,40,5.60
2017,04,06,09,41,5.70
2017,04,06,09,42,5.90
2017,04,06,09,43,5.60
2017,04,06,09,44,5.80
2017,04,06,09,45,2.90
2017,04,06,09,46,2.60
2017,04,06,09,47,2.70
2017,04,06,09,48,4.50
2017,04,06,09,49,3.50
2017,04,06,09,50,3.30
2017,04,06,09,51,4.10
2017,04,06,09,52,2.30
2017,04,06,09,53,2.30
2017,04,06,09,54,1.70
2017,04,06,09,55,1.50
2017,04,06,09,56,3.10
2017,04,06,09,57,2.10
2017,04,06,09,58,0.90
2017,04,06,09,59,2.40
2017,04,06,10,00,2.40
2017,04,06,10,01,3.50
2017,04,06,10,02,2.60
2017,04,06,10,03,2.80
2017,04,06,10,04,1.40
2017,04,06,10,05,0.40
2017,04,06,10,06,1.50
2017,04,06,10,07,3.50
2017,04,06,10,08,1.70
2017,04,06,10,09,3.50
2017,04,06,10,10,4.40
2017,04,06,10,11,7.80
2017,04,06,10,12,7.20
2017,04,06,10,13,4.80
2017,04,06,10,14,2.70
2017,04,06,10,15,1.40
2017,04,06,10,16,6.50
2017,04,06,10,17,6.50
2017,04,06,10,18,2.80
2017,04,06,10,19,0.00
2017,04,06,10,20,3.50
2017,04,06,10,21,5.10
2017,04,06,10,22,1.60
2017,04,06,10,23,2.30
2017,04,06,10,24,4.90
2017,04,06,10,25,5.60
2017,04,06,10,26,4.60
2017,04,06,10,27,3.10
2017,04,06,10,28,2.30
2017,04,06,10,29,1.60
2017,04,06,10,30,4.50
2017,04,06,10,31,1.80
2017,04,06,10,32,5.00
2017,04,06,10,33,6.10
2017,04,06,10,34,4.30
2017,04,06,10,35,2.60
2017,04,06,10,36,2.30
2017,04,06,10,37,2.30
2017,04,06,10,38,1.00
2017,04,06,10,39,1.90
2017,04,06,10,40,0.30
2017,04,06,10,41,0.00
2017,04,06,10,42,0.00
2017,04,06,10,43,0.50
2017,04,06,10,44,0.90
2017,04,06,10,45,3.80
2017,04,06,10,46,3.10
2017,04,06,10,47,1.00
2017,04,06,10,48,2.50
2017,04,06,10,49,2.90
2017,04,06,10,50,2.50
2017,04,06,10,51,1.50
2017,04,06,10,52,0.40
2017,04,06,10,53,0.00
2017,04,06,10,54,0.00
2017,04,06,10,55,0.10
2017,04,06,10,56,0.00
2017,04,06,10,57,0.10
2017,04,06,10,58,0.00
2017,04,06,10,59,2.70
2017,04,06,11,00,3.40
2017,04,06,11,01,3.10
2017,04,06,11,02,1.70
2017,04,06,11,03,0.00
2017,04,06,11,04,0.00
2017,04,06,11,05,0.00
2017,04,06,11,06,0.40
2017,04,06,11,07,0.10
2017,04,06,11,08,0.00
2017,04,06,11,09,0.10
2017,04,06,11,10,2.10
2017,04,06,11,11,0.00
2017,04,06,11,12,2.50
2017,04,06,11,13,8.10
2017,04,06,11,14,2.90
2017,04,06,11,15,2.10
2017,04,06,11,16,4.30
2017,04,06,11,17,1.00
2017,04,06,11,18,1.10
2017,04,06,11,19,1.50
2017,04,06,11,20,2.00
2017,04,06,11,21,0.10
2017,04,06,11,22,1.70
2017,04,06,11,23,0.00
2017,04,06,11,24,0.00
2017,04,06,11,25,4.50
2017,04,06,11,26,10.40
2017,04,06,11,27,6.30
2017,04,06,11,28,2.90
2017,04,06,11,29,7.60
2017,04,06,11,30,6.10
2017,04,06,11,31,7.30
2017,04,06,11,32,3.40
2017,04,06,11,33,10.50
2017,04,06,11,34,7.80
2017,04,06,11,35,3.00
2017,04,06,11,36,5.00
2017,04,06,11,37,7.60
2017,04,06,11,38,5.90
2017,04,06,11,39,8.30
2017,04,06,11,40,7.00
2017,04,06,11,41,3.70
2017,04,06,11,42,10.40
2017,04,06,11,43,11.10
2017,04,06,11,44,10.30
2017,04,06,11,45,14.40
2017,04,06,11,46,10.80
2017,04,06,11,47,6.70
2017,04,06,11,48,7.80
2017,04,06,11,49,10.70
2017,04,06,11,50,8.90
2017,04,06,11,51,11.70
2017,04,06,11,52,8.60
2017,04,06,11,53,14.80
2017,04,06,11,54,14.30
2017,04,06,11,55,14.40
2017,04,06,11,56,13.60
2017,04,06,11,57,9.00
2017,04,06,11,58,10.80
2017,04,06,11,59,7.80
2017,04,06,12,00,10.60
2017,04,06,12,01,7.10
2017,04,06,12,02,14.40
2017,04,06,12,03,11.10
2017,04,06,12,04,7.40
2017,04,06,12,05,8.70
2017,04,06,12,06,9.70
2017,04,06,12,07,14.30
2017,04,06,12,08,8.30
2017,04,06,12,09,6.70
2017,04,06,12,10,8.60
2017,04,06,12,11,7.80
2017,04,06,12,12,9.90
2017,04,06,12,13,13.60
2017,04,06,12,14,6.00
2017,04,06,12,15,2.20
2017,04,06,12,16,7.50
2017,04,06,12,17,9.50
2017,04,06,12,18,10.70
2017,04,06,12,19,6.10
2017,04,06,12,20,7.70
2017,04,06,12,21,7.10
2017,04,06,12,22,6.10
2017,04,06,12,23,6.60
2017,04,06,12,24,9.30
2017,04,06,12,25,7.00
2017,04,06,12,26,8.40
2017,04,06,12,27,10.20
2017,04,06,12,28,7.20
2017,04,06,12,29,5.10
2017,04,06,12,30,4.40
2017,04,06,12,31,6.00
2017,04,06,12,32,6.00
2017,04,06,12,33,2.60
2017,04,06,12,34,3.00
2017,04,06,12,35,4.10
2017,04,06,12,36,6.10
2017,04,06,12,37,9.70
2017,04,06,12,38,7.10
2017,04,06,12,39,3.40
2017,04,06,12,40,2.90
2017,04,06,12,41,1.90
2017,04,06,12,42,3.90
2017,04,06,12,43,8.00
2017,04,06,12,44,7.60
2017,04,06,12,45,4.90
2017,04,06,12,46,5.30
2017,04,06,12,47,7.00
2017,04,06,12,48,10.40
2017,04,06,12,49,6.90
2017,04,06,12,50,3.40
2017,04,06,12,51,5.50
2017,04,06,12,52,11.50
2017,04,06,12,53,10.10
2017,04,06,12,54,7.20
2017,04,06,12,55,7.20
2017,04,06,12,56,4.80
2017,04,06,12,57,0.90
2017,04,06,12,58,0.00
2017,04,06,12,59,0.40
2017,04,06,13,00,5.60
2017,04,06,13,01,6.70
2017,04,06,13,02,3.60
2017,04,06,13,03,5.40
2017,04,06,13,04,6.10
2017,04,06,13,05,7.20
2017,04,06,13,06,7.00
2017,04,06,13,07,4.70
2017,04,06,13,08,5.30
2017,04,06,13,09,5.70
2017,04,06,13,10,2.40
2017,04,06,13,11,1.70
2017,04,06,13,12,3.30
2017,04,06,13,13,3.50
2017,04,06,13,14,6.70
2017,04,06,13,15,4.60
2017,04,06,13,16,5.10
2017,04,06,13,17,10.10
2017,04,06,13,18,13.90
2017,04,06,13,19,8.40
2017,04,06,13,20,7.20
2017,04,06,13,21,11.20
2017,04,06,13,22,11.30
2017,04,06,13,23,11.40
2017,04,06,13,24,13.80
2017,04,06,13,25,15.60
2017,04,06,13,26,17.20
2017,04,06,13,27,14.30
2017,04,06,13,28,11.70
2017,04,06,13,29,8.40
2017,04,06,13,30,10.30
2017,04,06,13,31,7.70
2017,04,06,13,32,6.80
2017,04,06,13,33,7.90
2017,04,06,13,34,11.50
2017,04,06,13,35,12.10
2017,04,06,13,36,11.30
2017,04,06,13,37,13.90
2017,04,06,13,38,10.30
2017,04,06,13,39,9.60
2017,04,06,13,40,12.30
2017,04,06,13,41,9.80
2017,04,06,13,42,10.30
2017,04,06,13,43,7.90
2017,04,06,13,44,6.30
2017,04,06,13,45,9.10
2017,04,06,13,46,6.00
2017,04,06,13,47,9.50
2017,04,06,13,48,12.50
2017,04,06,13,49,10.10
2017,04,06,13,50,11.00
2017,04,06,13,51,11.30
2017,04,06,13,52,7.10
2017,04,06,13,53,15.40
2017,04,06,13,54,14.50
2017,04,06,13,55,8.70
2017,04,06,13,56,10.40
2017,04,06,13,57,14.90
2017,04,06,13,58,8.50
2017,04,06,13,59,11.90
2017,04,06,14,00,11.90
2017,04,06,14,01,7.10
2017,04,06,14,02,10.80
2017,04,06,14,03,11.20
2017,04,06,14,04,9.20
2017,04,06,14,05,9.70
2017,04,06,14,06,8.60
2017,04,06,14,07,7.10
2017,04,06,14,08,7.50
2017,04,06,14,09,5.70
2017,04,06,14,10,6.10
2017,04,06,14,11,3.90
2017,04,06,14,12,3.40
2017,04,06,14,13,4.00
2017,04,06,14,14,4.80
2017,04,06,14,15,2.30
2017,04,06,14,16,4.90
2017,04,06,14,17,7.00
2017,04,06,14,18,6.40
2017,04,06,14,19,6.70
2017,04,06,14,20,4.10
2017,04,06,14,21,5.10
2017,04,06,14,22,5.00
2017,04,06,14,23,7.50
2017,04,06,14,24,5.00
2017,04,06,14,25,2.30
2017,04,06,14,26,7.40
2017,04,06,14,27,8.70
2017,04,06,14,28,9.20
2017,04,06,14,29,8.20
2017,04,06,14,30,11.80
2017,04,06,14,31,11.00
2017,04,06,14,32,8.90
2017,04,06,14,33,6.70
2017,04,06,14,34,5.00
2017,04,06,14,35,6.00
2017,04,06,14,36,8.10
2017,04,06,14,37,6.20
2017,04,06,14,38,9.70
2017,04,06,14,39,11.30
2017,04,06,14,40,7.00
2017,04,06,14,41,7.30
2017,04,06,14,42,9.70
2017,04,06,14,43,9.30
2017,04,06,14,44,3.40
2017,04,06,14,45,10.60
2017,04,06,14,46,9.70
2017,04,06,14,47,9.40
2017,04,06,14,48,6.90
2017,04,06,14,49,6.10
2017,04,06,14,50,8.60
2017,04,06,14,51,12.10
2017,04,06,14,52,8.70
2017,04,06,14,53,10.30
2017,04,06,14,54,11.30
2017,04,06,14,55,8.10
2017,04,06,14,56,8.60
2017,04,06,14,57,4.80
2017,04,06,14,58,6.10
2017,04,06,14,59,9.70
2017,04,06,15,00,7.80
2017,04,06,15,01,10.80
2017,04,06,15,02,7.30
2017,04,06,15,03,7.40
2017,04,06,15,04,6.60
2017,04,06,15,05,5.50
2017,04,06,15,06,4.60
2017,04,06,15,07,6.30
2017,04,06,15,08,4.80
2017,04,06,15,09,2.60
2017,04,06,15,10,3.40
2017,04,06,15,11,5.00
2017,04,06,15,12,5.30
2017,04,06,15,13,3.90
2017,04,06,15,14,3.40
2017,04,06,15,15,2.40
2017,04,06,15,16,5.60
2017,04,06,15,17,5.20
2017,04,06,15,18,3.90
2017,04,06,15,19,5.30
2017,04,06,15,20,4.20
2017,04,06,15,21,2.70
2017,04,06,15,22,4.60
2017,04,06,15,23,2.70
2017,04,06,15,24,0.30
2017,04,06,15,25,1.90
2017,04,06,15,26,6.00
2017,04,06,15,27,2.10
2017,04,06,15,28,1.50
2017,04,06,15,29,4.30
2017,04,06,15,30,5.10
2017,04,06,15,31,2.00
2017,04,06,15,32,3.80
2017,04,06,15,33,4.60
2017,04,06,15,34,5.00
2017,04,06,15,35,6.10
2017,04,06,15,36,6.00
2017,04,06,15,37,6.30
2017,04,06,15,38,4.20
2017,04,06,15,39,1.00
2017,04,06,15,40,0.70
2017,04,06,15,41,0.40
2017,04,06,15,42,1.40
2017,04,06,15,43,1.30
2017,04,06,15,44,1.00
2017,04,06,15,45,0.40
2017,04,06,15,46,0.00
2017,04,06,15,47,2.10
2017,04,06,15,48,4.70
2017,04,06,15,49,4.10
2017,04,06,15,50,4.80
2017,04,06,15,51,5.40
2017,04,06,15,52,5.90
2017,04,06,15,53,5.10
2017,04,06,15,54,5.20
2017,04,06,15,55,4.40
2017,04,06,15,56,3.60
2017,04,06,15,57,3.40
2017,04,06,15,58,3.50
2017,04,06,15,59,4.40
2017,04,06,16,00,3.90
2017,04,06,16,01,6.40
2017,04,06,16,02,7.00
2017,04,06,16,03,4.40
2017,04,06,16,04,4.70
2017,04,06,16,05,7.20
2017,04,06,16,06,6.70
2017,04,06,16,07,4.80
2017,04,06,16,08,3.20
2017,04,06,16,09,1.80
2017,04,06,16,10,1.60
2017,04,06,16,11,2.50
2017,04,06,16,12,5.30
2017,04,06,16,13,4.70
2017,04,06,16,14,6.10
2017,04,06,16,15,5.60
2017,04,06,16,16,7.90
2017,04,06,16,17,7.30
2017,04,06,16,18,5.20
2017,04,06,16,19,5.60
2017,04,06,16,20,5.30
2017,04,06,16,21,6.20
2017,04,06,16,22,6.50
2017,04,06,16,23,8.00
2017,04,06,16,24,7.00
2017,04,06,16,25,6.40
2017,04,06,16,26,8.40
2017,04,06,16,27,8.00
2017,04,06,16,28,7.10
2017,04,06,16,29,7.20
2017,04,06,16,30,5.70
2017,04,06,16,31,4.50
2017,04,06,16,32,4.90
2017,04,06,16,33,7.00
2017,04,06,16,34,6.70
2017,04,06,16,35,8.80
2017,04,06,16,36,12.10
2017,04,06,16,37,10.10
2017,04,06,16,38,9.80
2017,04,06,16,39,10.50
2017,04,06,16,40,5.70
2017,04,06,16,41,8.40
2017,04,06,16,42,11.20
2017,04,06,16,43,11.20
2017,04,06,16,44,11.00
2017,04,06,16,45,12.00
2017,04,06,16,46,13.20
2017,04,06,16,47,11.20
2017,04,06,16,48,10.60
2017,04,06,16,49,9.60
2017,04,06,16,50,8.60
2017,04,06,16,51,9.70
2017,04,06,16,52,10.50
2017,04,06,16,53,9.40
2017,04,06,16,54,8.30
2017,04,06,16,55,8.90
2017,04,06,16,56,6.00
2017,04,06,16,57,7.60
2017,04,06,16,58,7.50
2017,04,06,16,59,9.70
2017,04,06,17,00,7.20
2017,04,06,17,01,5.90
2017,04,06,17,02,4.60
2017,04,06,17,03,5.90
2017,04,06,17,04,4.80
2017,04,06,17,05,3.80
2017,04,06,17,06,3.40
2017,04,06,17,07,5.20
2017,04,06,17,08,7.90
2017,04,06,17,09,6.70
2017,04,06,17,10,4.80
2017,04,06,17,11,3.40
2017,04,06,17,12,3.00
2017,04,06,17,13,2.90
2017,04,06,17,14,6.00
2017,04,06,17,15,7.70
2017,04,06,17,16,6.60
2017,04,06,17,17,9.70
2017,04,06,17,18,7.70
2017,04,06,17,19,6.90
2017,04,06,17,20,5.60
2017,04,06,17,21,4.90
2017,04,06,17,22,5.20
2017,04,06,17,23,9.60
2017,04,06,17,24,8.10
2017,04,06,17,25,8.60
2017,04,06,17,26,8.50
2017,04,06,17,27,8.70
2017,04,06,17,28,5.90
2017,04,06,17,29,6.10
2017,04,06,17,30,8.70
2017,04,06,17,31,7.20
2017,04,06,17,32,7.80
2017,04,06,17,33,11.80
2017,04,06,17,34,10.90
2017,04,06,17,35,9.00
2017,04,06,17,36,7.20
2017,04,06,17,37,7.00
2017,04,06,17,38,10.30
2017,04,06,17,39,10.70
2017,04,06,17,40,11.30
2017,04,06,17,41,12.20
2017,04,06,17,42,9.70
2017,04,06,17,43,10.10
2017,04,06,17,44,11.00
2017,04,06,17,45,10.30
2017,04,06,17,46,8.20
2017,04,06,17,47,8.90
2017,04,06,17,48,6.60
2017,04,06,17,49,7.70
2017,04,06,17,50,8.30
2017,04,06,17,51,8.20
2017,04,06,17,52,9.10
2017,04,06,17,53,9.50
2017,04,06,17,54,7.90
2017,04,06,17,55,7.10
2017,04,06,17,56,5.20
2017,04,06,17,57,6.60
2017,04,06,17,58,2.90
2017,04,06,17,59,6.70
2017,04,06,18,00,5.70
2017,04,06,18,01,6.30
2017,04,06,18,02,6.70